{"data":{"norad_id":68176,"epoch":"2026-09-19T21:39:05.652000Z","epoch_age_seconds":107738,"freshness":"FRESH","line1":"1 68176U 26050K   26262.90214875  .00021085  00000+0  63288-3 0  9990","line2":"2 68176  53.1579  80.6955 0000904  96.8141 263.2965 15.34426877 30479","mean_motion":15.34426877,"eccentricity":9.04e-5,"inclination_deg":53.1579,"raan_deg":80.6955,"arg_perigee_deg":96.8141,"mean_anomaly_deg":263.2965,"bstar":0.00063288,"rev_number":3047,"period_min":93.846114245299,"perigee_km":462.00495252878,"apogee_km":463.24176200137,"semimajor_km":6840.7603572651,"source":"CELESTRAK","updated_at":"2026-09-20T09:00:43.800324Z"}}